Regional Weather Roundup
Issued by NWS Midland/Odessa, TX

Home | Current Version | Previous Version | Text Only | Print | Product List | Glossary On
Versions: 1 2 3 4 5 6 7 8 9 10 11 12 13 14 15 16 17 18 19 20 21 22 23 24 25 26 27 28 29 30 31 32 33 34 35 36 37 38 39 40 41 42 43 44 45 46 47 48 49 50
000
ASUS44 KMAF 290410
RWRMAF
MIDLAND AREA WEATHER ROUNDUP
NATIONAL WEATHER SERVICE MIDLAND TX
1100 PM CDT SAT MAY 28 2016

...IN SOUTHWEST TEXAS AND SOUTHEAST NEW MEXICO...

CITY           SKY/WX    TMP DP  RH WIND       PRES   REMARKS
ALPINE         CLEAR     74  60  63 SE10      30.11R
ANDREWS        FAIR      74  49  40 SE6       30.00R
ARTESIA        CLEAR     72  25  17 SE6       29.98R
BIG SPRING     CLOUDY    75  60  58 CALM      30.02R
CARLSBAD       CLEAR     74  32  21 S6        29.96R
DRYDEN           N/A     78  68  71 E8        29.93R
FORT STOCKTON  NOT AVBL
GUAD PASS      NOT AVBL
HOBBS          CLEAR     73  48  40 SE9       30.02R
MARFA          CLEAR     71  59  65 E13       30.08R
MIDLAND AIRPK  CLOUDY    77  63  61 NE16G29   30.00R THUNDER
MIDLAND INTL   PTCLDY    79  59  50 E6        29.99R
ODESSA         CLEAR     81  62  52 E8        30.00R
PECOS          CLEAR     82  64  54 E13       29.93R
PRESIDIO       NOT AVBL
SEMINOLE       CLEAR     74  46  35 S10       30.01R
SNYDER         TSTM     N/A N/A N/A SE20G31   30.05R
WINK           CLEAR     81  62  52 SE13      29.95R
$$
...OTHER STATIONS IN TEXAS...

CITY           SKY/WX    TMP DP  RH WIND       PRES   REMARKS
ABILENE        CLOUDY    78  67  68 E14       29.98S
AMARILLO       CLEAR     62  49  62 SE12      30.07R
AUSTIN         TSTM      79  73  82 E5        30.04R
BROWNSVILLE    CLOUDY    81  76  84 SE13      29.97R
CORPUS CHRISTI PTCLDY    80  76  87 SE10      29.97R
DALLAS FTW     CLOUDY    80  72  76 SE9       29.99R
DEL RIO        CLOUDY    86  71  60 E9        29.89R
EL PASO        PTCLDY    76   2   5 NE8       29.96R
HOUSTON INT    MOCLDY    75  72  90 S5        30.03R
LUBBOCK        CLOUDY    73  50  44 E13       30.05R
SAN ANGELO     CLOUDY    73  61  65 E9        29.99R
SAN ANTONIO    CLOUDY    78  73  84 SE13      30.00R
WACO           MOCLDY    80  72  76 SE10      30.00R HAZE
WICHITA FALLS  NOT AVBL
$$
...OTHER LOCATIONS IN NEW MEXICO...

CITY           SKY/WX    TMP DP  RH WIND       PRES   REMARKS
ALAMAGORDO     CLEAR     70  16  12 NE7       30.01R
ALBUQUERQUE    CLOUDY    68  18  14 E8        30.07R
CANNON AFB     CLEAR     65  34  31 E9        30.06R
CLOVIS         CLEAR     66  37  34 E14       30.07R
HOLLOMAN AFB   CLEAR     66  12  12 N6        29.99R
ROSWELL        CLEAR     70  26  19 S3        29.98R
RUIDOSO          N/A     59   9  13 SW8       30.22R
SANTA FE       CLEAR     60  21  22 E7        30.14R
TRUTH OR CONSE CLEAR     74  10   8 CALM      30.02R
TUCUMCARI      CLEAR     64  32  30 S7        30.02R
$$




USA.gov is the U.S. government's official web portal to all federal, state and local government web resources and services.